GW1941 Weather Reports


Display with metric or nautical units.
time (UTC)temp
F
wind
direction
speed
MPH
gust
MPH
rain 1hr
in
rain 24hr
in
rain mn
in
humidity
%
barometer
mb
20260504050629 51 223 3.0 3.0 0.00 0.00 0.00 66 1015.9
20260504050126 51 237 2.0 2.0 0.00 0.00 0.00 65 1015.9
20260504045623 51 199 3.0 3.0 0.00 0.00 0.00 65 1015.6
20260504045118 51 251 3.0 3.0 0.00 0.00 0.00 65 1015.8
20260504044616 51 215 2.0 3.0 0.00 0.00 0.00 66 1015.7
20260504044113 51 301 2.0 2.0 0.00 0.00 0.00 65 1015.6
20260504043610 51 232 2.0 2.0 0.00 0.00 0.00 66 1016.0
20260504043107 50 172 3.0 3.0 0.00 0.00 0.00 66 1015.9
20260504042604 50 235 2.0 2.0 0.00 0.00 0.00 67 1015.9
20260504042101 50 207 3.0 3.0 0.00 0.00 0.00 65 1015.7
20260504041556 50 238 2.0 2.0 0.00 0.00 0.00 64 1015.9
20260504041053 50 225 2.0 2.0 0.00 0.00 0.00 64 1015.8
20260504040551 50 331 0.0 0.0 0.00 0.00 0.00 64 1015.8
20260504040047 50 232 1.0 2.0 0.00 0.00 0.00 63 1015.7
20260504035544 50 242 3.0 3.0 0.00 0.00 0.00 62 1015.5
20260504035040 50 250 1.0 2.0 0.00 0.00 0.00 61 1015.7
20260504034538 50 243 1.0 1.0 0.00 0.00 0.00 61 1015.7
20260504034035 50 240 1.0 1.0 0.00 0.00 0.00 60 1015.4
20260504033533 50 240 2.0 2.0 0.00 0.00 0.00 59 1015.3
20260504033030 49 241 1.0 2.0 0.00 0.00 0.00 60 1015.4
20260504032527 49 256 0.0 0.0 0.00 0.00 0.00 60 1015.3
20260504032024 49 246 0.0 0.0 0.00 0.00 0.00 59 1015.3
20260504031521 49 252 0.0 0.0 0.00 0.00 0.00 58 1015.4
20260504031017 49 251 0.0 0.0 0.00 0.00 0.00 58 1015.6
20260504030514 49 253 0.0 0.0 0.00 0.00 0.00 58 1015.4
20260504030010 49 287 0.0 0.0 0.00 0.00 0.00 57 1015.3
20260504025507 48 252 0.0 0.0 0.00 0.00 0.00 58 1015.5
20260504025004 48 252 0.0 0.0 0.00 0.00 0.00 56 1015.5
20260504024502 48 264 0.0 0.0 0.00 0.00 0.00 57 1015.3
20260504023959 48 255 0.0 0.0 0.00 0.00 0.00 58 1015.4
20260504023455 48 261 0.0 0.0 0.00 0.00 0.00 59 1015.5
20260504022950 48 255 0.0 0.0 0.00 0.00 0.00 57 1015.5
20260504022447 48 252 0.0 0.0 0.00 0.00 0.00 59 1015.2
20260504021943 48 256 0.0 0.0 0.00 0.00 0.00 60 1015.3
20260504021441 48 257 0.0 0.0 0.00 0.00 0.00 56 1015.2
20260504020938 48 261 0.0 0.0 0.00 0.00 0.00 59 1015.3
20260504020434 48 261 0.0 0.0 0.00 0.00 0.00 58 1015.3
20260504015931 49 261 0.0 0.0 0.00 0.00 0.00 60 1015.3
20260504015427 49 257 1.0 1.0 0.00 0.00 0.00 58 1015.4
20260504014923 49 254 0.0 0.0 0.00 0.00 0.00 56 1015.5
20260504014419 49 258 0.0 0.0 0.00 0.00 0.00 56 1015.2
20260504013916 49 258 0.0 0.0 0.00 0.00 0.00 55 1015.1
20260504013415 49 260 0.0 0.0 0.00 0.00 0.00 56 1015.2
20260504012910 49 254 0.0 0.0 0.00 0.00 0.00 56 1015.0
20260504012409 49 257 0.0 0.0 0.00 0.00 0.00 56 1015.0
20260504011906 49 254 0.0 0.0 0.00 0.00 0.00 57 1015.1
20260504011403 49 252 0.0 0.0 0.00 0.00 0.00 57 1015.0
20260504010858 49 258 0.0 0.0 0.00 0.00 0.00 59 1015.1
20260504010354 49 256 0.0 0.0 0.00 0.00 0.00 58 1014.7
20260504005851 49 256 0.0 0.0 0.00 0.00 0.00 57 1014.6
20260504005348 50 260 0.0 0.0 0.00 0.00 0.00 56 1014.5
20260504004845 50 260 0.0 0.0 0.00 0.00 0.00 57 1014.5
20260504004343 50 261 0.0 0.0 0.00 0.00 0.00 56 1014.3
20260504003839 51 261 0.0 0.0 0.00 0.00 0.00 53 1014.4
20260504003336 51 261 0.0 0.0 0.00 0.00 0.00 52 1014.4
20260504002833 52 262 0.0 0.0 0.00 0.00 0.00 53 1014.3
20260504002330 53 262 0.0 0.0 0.00 0.00 0.00 50 1014.5
20260504001827 53 261 0.0 0.0 0.00 0.00 0.00 47 1014.2
20260504001324 54 256 0.0 0.0 0.00 0.00 0.00 45 1014.3
20260504000821 54 256 0.0 0.0 0.00 0.00 0.00 42 1014.0
20260504000318 55 258 0.0 0.0 0.00 0.00 0.00 45 1014.2
20260503235816 55 258 0.0 0.0 0.00 0.00 0.00 42 1014.3
20260503235313 55 258 0.0 0.0 0.00 0.00 0.00 40 1014.1
20260503234810 56 268 0.0 0.0 0.00 0.00 0.00 40 1013.9
20260503234308 56 247 0.0 0.0 0.00 0.00 0.00 41 1013.8
20260503233806 57 252 1.0 2.0 0.00 0.00 0.00 39 1013.9
20260503233301 57 257 0.0 0.0 0.00 0.00 0.00 39 1013.7
20260503232759 57 244 0.0 0.0 0.00 0.00 0.00 38 1013.6
20260503232256 57 235 1.0 2.0 0.00 0.00 0.00 38 1013.9
20260503231754 57 266 0.0 0.0 0.00 0.00 0.00 38 1013.9
20260503231251 57 255 0.0 1.0 0.00 0.00 0.00 37 1013.7
20260503230746 58 250 1.0 1.0 0.00 0.00 0.00 36 1013.7
20260503230244 58 137 3.0 5.0 0.00 0.00 0.00 36 1013.5
20260503225741 58 250 2.0 3.0 0.00 0.00 0.00 35 1013.7
20260503225241 58 16 2.0 6.0 0.00 0.00 0.00 36 1013.5
20260503224738 58 235 2.0 2.0 0.00 0.00 0.00 36 1013.6
20260503224236 59 230 2.0 2.0 0.00 0.00 0.00 36 1013.6
20260503223734 59 285 1.0 2.0 0.00 0.00 0.00 34 1013.8
20260503223231 59 279 2.0 2.0 0.00 0.00 0.00 35 1013.5
20260503222727 59 263 2.0 2.0 0.00 0.00 0.00 34 1013.3
20260503222225 59 272 5.0 6.0 0.00 0.00 0.00 34 1013.4
20260503221723 59 186 3.0 5.0 0.00 0.00 0.00 35 1013.6
20260503221221 59 289 2.0 3.0 0.00 0.00 0.00 34 1013.5
20260503220717 59 308 4.0 8.0 0.00 0.00 0.00 34 1013.3
20260503220214 59 256 4.0 5.0 0.00 0.00 0.00 35 1013.5
20260503215711 59 146 4.0 5.0 0.00 0.00 0.00 35 1013.4
20260503215208 59 293 2.0 3.0 0.00 0.00 0.00 35 1013.2
20260503214706 60 112 3.0 5.0 0.00 0.00 0.00 35 1013.4
20260503214201 60 314 5.0 7.0 0.00 0.00 0.00 33 1013.2
20260503213655 60 257 2.0 2.0 0.00 0.00 0.00 34 1013.3
20260503213152 61 189 3.0 5.0 0.00 0.00 0.00 32 1013.2
20260503212649 61 268 2.0 3.0 0.00 0.00 0.00 32 1013.2
20260503212146 60 260 0.0 1.0 0.00 0.00 0.00 33 1013.0
20260503211644 60 311 5.0 7.0 0.00 0.00 0.00 32 1012.9
20260503211139 60 109 2.0 3.0 0.00 0.00 0.00 34 1013.1
20260503210636 60 141 5.0 7.0 0.00 0.00 0.00 32 1013.1
20260503210132 60 324 7.0 13.0 0.00 0.00 0.00 31 1013.2
20260503205628 60 131 5.0 6.0 0.00 0.00 0.00 33 1013.2
20260503205125 60 114 5.0 9.0 0.00 0.00 0.00 32 1013.2
20260503204621 60 227 1.0 1.0 0.00 0.00 0.00 33 1013.1
20260503204119 60 117 7.0 9.0 0.00 0.00 0.00 32 1012.9
20260503203616 61 224 4.0 5.0 0.00 0.00 0.00 33 1013.0
20260503203114 62 214 2.0 2.0 0.00 0.00 0.00 32 1013.1
20260503202611 61 235 4.0 6.0 0.00 0.00 0.00 31 1013.1
20260503202109 60 300 4.0 7.0 0.00 0.00 0.00 32 1013.0
20260503201607 60 123 3.0 5.0 0.00 0.00 0.00 33 1012.8
20260503201104 61 130 3.0 5.0 0.00 0.00 0.00 34 1012.9
20260503200600 61 178 3.0 3.0 0.00 0.00 0.00 32 1013.1
20260503200056 61 178 3.0 5.0 0.00 0.00 0.00 34 1012.9
20260503195554 61 266 0.0 1.0 0.00 0.00 0.00 32 1013.1
20260503195050 61 268 1.0 1.0 0.00 0.00 0.00 35 1013.1
20260503194547 60 253 4.0 6.0 0.00 0.00 0.00 33 1012.9
20260503194047 60 296 2.0 3.0 0.00 0.00 0.00 35 1013.1
20260503193544 60 209 3.0 7.0 0.00 0.00 0.00 35 1013.2
20260503193039 61 289 5.0 8.0 0.00 0.00 0.00 33 1013.5
20260503192536 60 93 5.0 6.0 0.00 0.00 0.00 34 1013.2
20260503192032 60 169 2.0 3.0 0.00 0.00 0.00 35 1013.3
20260503191528 59 258 3.0 5.0 0.00 0.00 0.00 35 1013.4
20260503191025 59 276 5.0 8.0 0.00 0.00 0.00 34 1013.5
20260503190522 60 261 2.0 3.0 0.00 0.00 0.00 35 1013.7
20260503190019 60 149 7.0 9.0 0.00 0.00 0.00 36 1013.4
20260503185516 59 13 3.0 5.0 0.00 0.00 0.00 36 1013.6
20260503185015 59 238 3.0 7.0 0.00 0.00 0.00 38 1013.6
20260503184512 60 220 3.0 3.0 0.00 0.00 0.00 37 1013.7
20260503184008 59 298 0.0 0.0 0.00 0.00 0.00 37 1013.7
20260503183505 58 238 3.0 5.0 0.00 0.00 0.00 36 1013.7
20260503183002 59 284 1.0 2.0 0.00 0.00 0.00 38 1013.7
20260503182500 59 301 4.0 9.0 0.00 0.00 0.00 36 1013.8
20260503181958 59 359 7.0 9.0 0.00 0.00 0.00 36 1013.7
20260503181454 57 283 5.0 6.0 0.00 0.00 0.00 37 1013.8
20260503180950 60 269 4.0 6.0 0.00 0.00 0.00 34 1013.9
20260503180449 59 285 4.0 7.0 0.00 0.00 0.00 35 1013.9
20260503175945 59 200 5.0 8.0 0.00 0.00 0.00 36 1014.0
20260503175443 59 270 0.0 0.0 0.00 0.00 0.00 40 1013.5
20260503174939 59 293 2.0 5.0 0.00 0.00 0.00 36 1013.8
20260503174437 59 241 2.0 2.0 0.00 0.00 0.00 39 1014.0
20260503173932 57 199 1.0 2.0 0.00 0.00 0.00 39 1013.5
20260503173428 56 272 5.0 7.0 0.00 0.00 0.00 38 1013.5
20260503172925 57 128 3.0 5.0 0.00 0.00 0.00 42 1013.9
20260503172423 57 262 2.0 2.0 0.00 0.00 0.00 37 1013.9
20260503171919 57 267 3.0 5.0 0.00 0.00 0.00 36 1013.9
20260503171416 57 267 2.0 3.0 0.00 0.00 0.00 36 1013.9
20260503170914 57 261 3.0 8.0 0.00 0.00 0.00 39 1013.9
20260503170409 57 129 5.0 9.0 0.00 0.00 0.00 38 1013.9
20260503150802 55 136 4.0 5.0 0.00 0.00 0.00 45 1014.3
20260503150258 53 212 2.0 5.0 0.00 0.00 0.00 46 1014.4
20260503140222 53 236 2.0 3.0 0.00 0.00 0.00 46 1014.4
20260503131152 49 268 2.0 3.0 0.00 0.00 0.00 55 1014.2
20260503130649 49 268 0.0 1.0 0.00 0.00 0.00 58 1014.1
20260503130147 49 284 2.0 3.0 0.00 0.00 0.00 56 1014.1
20260503120112 47 248 1.0 2.0 0.00 0.00 0.00 64 1013.8
20260503110539 46 290 1.0 1.0 0.00 0.00 0.00 66 1013.0
20260503090426 43 263 0.0 0.0 0.00 0.00 0.00 73 1011.6
20260503081353 44 261 0.0 0.0 0.00 0.00 0.00 70 1011.2
20260503080849 44 257 1.0 1.0 0.00 0.00 0.00 69 1011.1
20260503080347 44 264 0.0 0.0 0.00 0.00 0.00 70 1011.0
20260503072823 46 263 0.0 0.0 0.00 0.00 0.00 63 1010.7
20260503072320 47 267 0.0 1.0 0.00 0.00 0.00 62 1010.7
20260503071816 47 261 0.0 0.0 0.00 0.00 0.00 61 1010.5
20260503071314 47 282 1.0 1.0 0.00 0.00 0.00 61 1010.6
20260503070810 48 265 1.0 1.0 0.00 0.00 0.00 60 1010.6
20260503070308 48 287 2.0 2.0 0.00 0.00 0.00 59 1010.7
20260503060232 51 264 1.0 1.0 0.00 0.00 0.00 53 1011.1